STARLINK-2666, 48666

Orbit data source: Space-Track

STARLINK-2666, 48666 is a payload satellite owned by SpaceX/Seattle (US) in LEO that was launched on Wed, 26 May 2021 UTC via an FALCON 9 launch vehicle from the Air Force Eastern Test Range (AFETR). Payload-class satellites include a variety of spacecraft equipped with specific instruments for various scientific and technological missions. These include communications satellites like Starlink; space stations such as the ISS; scientific satellites like the Hubble; Earth observation satellites from companies like Planet Labs, Umbra, and HawkEye 360; GPS; miniature CubeSats for education and research; and military/defense satellites.

Loading next visibility...
Identifier
48666, 2021-044AE
Orbit
LEO
Country
Flag of USUS
Related business
Manufacturer
SpaceX/Seattle
Mission
Operational Commercial Communications
Bus & Motor
STARLINK, Unknown motor
Mass
260 kg wet, ~248 kg dry
Launch date (UTC)
2021-05-26 (5 years ago)
Launch vehicle
FALCON 9
Launch site
Air Force Eastern Test Range (AFETR)
Object type
Payload
Rocket body
Debris
Shape & HBR
Box + 1 Pan, 10.1 m
Radar Cross Section
13.562 m², Large (>1 m²)

Expand to show TLE details & history
Last TLE update: 12 hours ago

TLE from 12 hours ago
0 STARLINK-2666
1 48666U 21044AE  25349.67434612  .00001728  00000-0  13488-3 0  9992
2 48666  53.0545 129.2469 0001259  80.4970 279.6162 15.06400845251174
Epoch: 2025-12-15T16:11Z
TLE epoch observation values (Epoch: 2025-12-15T16:11:03.504Z)
Latitude
0.00003°
Longitude
161.9128°
Altitude
547.943 km
Speed
7.589 km/s
True Right ascension
08h 36m 59s
True Declination
0° 00' 00"
Sunlit
Object was in full shadow at epoch
Visualization orbit readout
Latitude
Unknown
Longitude
Unknown
Altitude
Unknown
Speed
Unknown
Apparent Right ascension
Unknown
Apparent Declination
Unknown
Sunlit
N/A
Visualization observer readout
Local Sidereal Time
02:35:35
Azimuth
Unknown
Elevation
Unknown
Doppler factor
Unknown
Orbital elements
Apogee altitude
548.352 km
Perigee altitude
546.608 km
Semi-major axis
6,925.617 km
Eccentricity
0.00013
Inclination
53.0545°
RAAN
129.2469°
Arg. of periapsis
80.497°
True anomaly
279.60198°
Mean anomaly
279.6162°
Eccentric anomaly
279.60909°
Mean motion
3.76578 °/min
Orbital period
95.6 mins
BSTAR
0.00013488
Loading maneuver chart data...
Computing Atmospheric mass density...
Loading historical data...
Loading historical data...
Loading historical data...
Loading historical data...
Loading historical data...
Loading historical data...
Loading historical data...

Documentation

Showing up to 5 results
|